Weather History for Toledo, OH

Change the Weather History Date:

Sunday, February 12, 2012

  Actual Average Record
Temperature  
Mean Temperature 24 °F 28 °F  
Max Temperature 31 °F 35 °F 61 °F (1984)
Min Temperature 17 °F 20 °F -14 °F (2014)
Degree Days  
Heating Degree Days 41 38  
Month to date heating degree days 399 462  
Since 1 July heating degree days 3495 4011  
Cooling Degree Days 0 0  
Month to date cooling degree days 0 0  
Year to date cooling degree days 0 0  
Moisture  
Dew Point 14 °F    
Average Humidity 69    
Maximum Humidity 84    
Minimum Humidity 53    
Precipitation  
Precipitation T in 0.08 in 0.48 in (1993)
Month to date precipitation 0.13 0.84  
Year to date precipitation 2.55 2.89  
Snow  
Snow 0.20 in 0.40 in - ()
Month to date snowfall 1.7 4.4  
Since 1 July snowfall 13.1 25.5  
Snow Depth 1.00 in    
Sea Level Pressure  
Sea Level Pressure 30.20 in    
Wind  
Wind Speed 13 mph (West)    
Max Wind Speed 23 mph    
Max Gust Speed 29 mph    
Visibility 9 miles    
Events Snow    
T = Trace of Precipitation, MM = Missing Value Source: NWS Daily Summary

Daily Weather History Graph

Daily Weather History Graph

Search for Another Location

Airport:

Trip Planner

Search our weather history database for the weather conditions in past years. The results will help you decide how hot, cold, wet, or windy it might be!

Date:

Astronomy

Feb. 12, 2012 Rise Set
Actual Time 7:35 AM EST 6:04 PM EST
Civil Twilight 7:06 AM EST 6:33 PM EST
Nautical Twilight 6:33 AM EST 7:05 PM EST
Astronomical Twilight 6:01 AM EST 7:37 PM EST
Moon No Moon Rise 9:47 AM EST (2/12)
Length of Visible Light 11h 26m
Length of Day
10h 29m
Waning Gibbous, 72% of the Moon is Illuminated
Feb 12
Waning Gibbous
Feb 14
Last Quarter
Feb 21
New
Feb 29
First Quarter
Mar 8
Full

Hourly Weather History & Observations

Time (EST) Temp. Windchill Dew Point Humidity Pressure Visibility Wind Dir Wind Speed Gust Speed Precip Events Conditions
12:39 AM 17.6 °F 4.3 °F 10.4 °F 73% 30.20 in 10.0 mi West 12.7 mph - N/A   Overcast
12:52 AM 17.1 °F 5.8 °F 10.9 °F 77% 30.24 in 10.0 mi West 9.2 mph - N/A   Overcast
1:52 AM 17.1 °F 4.3 °F 10.9 °F 77% 30.24 in 10.0 mi WSW 11.5 mph - N/A   Overcast
2:52 AM 17.1 °F 4.3 °F 10.9 °F 77% 30.23 in 10.0 mi WSW 11.5 mph - N/A   Overcast
3:52 AM 18.0 °F 5.4 °F 12.0 °F 78% 30.21 in 10.0 mi WSW 11.5 mph - N/A   Overcast
4:52 AM 19.0 °F 5.6 °F 12.0 °F 74% 30.19 in 10.0 mi WSW 13.8 mph - N/A   Overcast
5:52 AM 18.0 °F 4.8 °F 10.9 °F 74% 30.19 in 7.0 mi WSW 12.7 mph - 0.00 in Snow Light Snow
6:52 AM 19.0 °F 7.5 °F 12.9 °F 77% 30.20 in 4.0 mi WSW 10.4 mph - 0.00 in Snow Light Snow
7:32 AM 19.4 °F 9.5 °F 14.0 °F 80% 30.17 in 7.0 mi West 8.1 mph - 0.00 in Snow Light Snow
7:50 AM 19.4 °F 11.5 °F 14.0 °F 80% 30.17 in 8.0 mi West 5.8 mph - 0.00 in   Overcast
7:52 AM 19.0 °F 11.1 °F 14.0 °F 81% 30.21 in 7.0 mi West 5.8 mph - 0.00 in   Overcast
8:34 AM 19.4 °F 14.3 °F 15.8 °F 86% 30.18 in 6.0 mi West 3.5 mph - 0.00 in   Haze
8:52 AM 19.9 °F 14.9 °F 15.1 °F 81% 30.22 in 10.0 mi WSW 3.5 mph - 0.00 in   Overcast
9:52 AM 23.0 °F 10.1 °F 14.0 °F 68% 30.23 in 10.0 mi WNW 15.0 mph 20.7 mph N/A   Overcast
10:52 AM 24.1 °F 10.6 °F 14.0 °F 65% 30.22 in 10.0 mi WNW 17.3 mph 23.0 mph N/A   Overcast
11:52 AM 27.0 °F 16.1 °F 15.1 °F 61% 30.21 in 10.0 mi West 12.7 mph 23.0 mph N/A   Mostly Cloudy
12:16 PM 26.6 °F 13.4 °F 15.8 °F 64% 30.17 in 10.0 mi West 18.4 mph 27.6 mph N/A   Mostly Cloudy
12:44 PM 26.6 °F 13.8 °F 15.8 °F 64% 30.17 in 10.0 mi WNW 17.3 mph 24.2 mph N/A   Mostly Cloudy
12:52 PM 28.0 °F 16.5 °F 15.1 °F 58% 30.20 in 10.0 mi WNW 15.0 mph - N/A   Scattered Clouds
1:52 PM 28.0 °F 15.7 °F 16.0 °F 61% 30.19 in 10.0 mi WNW 17.3 mph 23.0 mph N/A   Scattered Clouds
2:52 PM 30.0 °F 18.3 °F 17.1 °F 59% 30.17 in 10.0 mi West 17.3 mph - N/A   Partly Cloudy
3:52 PM 30.9 °F 18.7 °F 16.0 °F 54% 30.17 in 10.0 mi West 19.6 mph 24.2 mph N/A   Clear
4:52 PM 30.0 °F 18.7 °F 17.1 °F 59% 30.17 in 10.0 mi West 16.1 mph - N/A   Clear
5:52 PM 28.9 °F 17.7 °F 15.1 °F 56% 30.18 in 10.0 mi West 15.0 mph - N/A   Clear
6:52 PM 26.1 °F 15.0 °F 15.1 °F 63% 30.19 in 10.0 mi West 12.7 mph - N/A   Clear
7:52 PM 25.0 °F 13.6 °F 15.1 °F 66% 30.20 in 10.0 mi West 12.7 mph - N/A   Clear
8:52 PM 25.0 °F 12.6 °F 15.1 °F 66% 30.20 in 10.0 mi WSW 15.0 mph - N/A   Clear
9:52 PM 24.1 °F 12.0 °F 14.0 °F 65% 30.20 in 10.0 mi West 13.8 mph - N/A   Clear
10:52 PM 23.0 °F 10.6 °F 12.9 °F 65% 30.19 in 10.0 mi West 13.8 mph - N/A   Clear
11:52 PM 23.0 °F 10.1 °F 12.0 °F 63% 30.19 in 10.0 mi WSW 15.0 mph - N/A   Clear